Regional Weather Roundup
Issued by NWS

Home | Current Version | Previous Version | Text Only | Print | Product List | Glossary Off
Versions: 1 2 3 4 5 6 7 8 9 10 11 12 13 14 15 16 17 18 19 20 21 22 23 24 25 26 27 28 29 30 31 32 33 34 35 36 37 38 39 40 41 42 43 44 45 46 47 48 49 50

000
ASUS43 KLMK 271502
RWRKY
KENTUCKY REGIONAL WEATHER ROUNDUP
NATIONAL WEATHER SERVICE LOUISVILLE KY
1100 AM EDT TUE SEP 27 2016

NOTE "FAIR" INDICATES FEW OR NO CLOUDS BELOW 12,000 FEET
WITH NO SIGNIFICANT WEATHER AND/OR OBSTRUCTIONS TO VISIBILITY.

KYZ001>023-026-027-061>063-070>075-271600-
WESTERN AND SOUTH CENTRAL KENTUCKY

CITY           SKY/WX    TMP DP  RH WIND       PRES   REMARKS
PADUCAH        SUNNY     67  50  54 NW6       30.05S
HENDERSON      SUNNY     68  48  49 W5        30.03F
OWENSBORO      NOT AVBL
HOPKINSVILLE   SUNNY     66  55  68 CALM      30.06S
BOWLING GREEN  SUNNY     64  54  69 CALM      30.06R
GLASGOW        NOT AVBL
$$

KYZ024-025-028>034-038-045-046-053-271600-
NORTH CENTRAL KENTUCKY

CITY           SKY/WX    TMP DP  RH WIND       PRES   REMARKS
LOUISVILLE/SDF MOSUNNY   67  48  50 W5        30.03R
LOUISVILLE/LOU SUNNY     65  50  58 VRB5      30.03S
FORT KNOX      SUNNY     65  53  63 S3        30.02S HAZE
$$

KYZ035>037-039>044-047>052-055>060-089>105-271600-
NORTHEAST KENTUCKY

CITY           SKY/WX    TMP DP  RH WIND       PRES   REMARKS
LEXINGTON      SUNNY     64  50  60 S6        30.03F
COVINGTON      MOSUNNY   65  49  56 SW8       30.00S
FRANKFORT      SUNNY     65  50  58 SW6       30.02S
$$

KYZ054-064>069-076>088-106>120-271600-
SOUTHEAST KENTUCKY

CITY           SKY/WX    TMP DP  RH WIND       PRES   REMARKS
JACKSON        SUNNY     61  54  77 CALM      30.06S
LONDON         SUNNY     64  46  52 CALM      30.06R
SOMERSET       FOG       55  55 100 CALM      30.08S VSB 1/4
MIDDLESBORO    SUNNY     68  46  45 NE5       30.05S
MONTICELLO     SUNNY     62  54  74 VRB3      30.07F
$$





USA.gov is the U.S. government's official web portal to all federal, state and local government web resources and services.